Location: Newark
(46.1292°N, 1.0086°W)
Time: 21:51:57
(UTC+00:00)

Transit 4A - Pass Details

Date: 26 November 2019
Orbit: 870 x 975 km, 66.8° (Epoch: 09 December)

Event Time Altitude Azimuth Distance (km) Brightness Sun altitude
Exits shadow 06:24:54 11° 303° (WNW) 2,488 9.5 -9.3°
Maximum altitude 06:29:19 24° 253° (WSW) 1,715 8.9 -8.6°
Drops below altitude 10° 06:33:52 10° 200° (SSW) 2,509 10.2 -7.9°
Sets 06:36:45 0° 187° (S) 3,442 11.1 -7.4°
